Location: Mauries
(43.6188°N, 0.3322°W)
Time: 12:12:15
(UTC+00:00)

Envisat - Pass Details

Date: 18 March 2026
Orbit: 761 x 762 km, 98.4° (Epoch: 14 April)

Event Time Altitude Azimuth Distance (km) Brightness Sun altitude
Rises 04:09:41 0° 358° (N) 3,234 6.5 -21.9°
Reaches altitude 10° 04:12:42 10° 339° (NNW) 2,303 5.5 -21.4°
Enters shadow 04:14:50 16° 315° (NW) 1,903 4.8 -21.0°
